Flag for Iran Weather past 2 weeks in Mashhad, Iran

Now
70 °F

Clear.


Feels Like: 70 °F
Forecast: 58 / 78 °F
Wind: 5 mph from Southeast

Location: Mashhad Airport

Current Time: Oct 2, 2014 at 7:02:55 PM

Latest Report: Oct 2, 2014 at 6:30 PM


Visibility: 10 mi

Pressure: 30.18 "Hg

Humidity: 40%

Dew point: 45 °F

Location of MashhadLocation

Historic Weather in Mashhad — Graph

°F

Mashhad temperature yesterday

Maximum temperature yesterday: 81 °F (at 2:00 PM)
Minimum temperature yesterday: 59 °F (at 4:30 AM)
Average temperature yesterday: 70 °F

Past Weeks' High & Low Weather Summary

 TemperatureHumidityPressure
High95 °F (Sep 29, 2:30 PM)77% (Sep 28, 5:00 AM)30.27 "Hg (Sep 28, 5:00 AM)
Low54 °F (Sep 20, 5:30 AM)6% (Sep 21, 4:50 PM)29.77 "Hg (Sep 26, 3:00 PM)
Average73 °F33%30.02 "Hg
* Reported Sep 17 6:30 PM — Oct 2 6:00 PM, Mashhad, Weather by CustomWeather, © 2014

Note: Actual official high and low records may vary slightly from our data, if they occured in-between our weather recording intervals... More about our weather records

Advertising

Mashhad weather history for previous 24 hours

 ConditionsComfort  
Time TempWeatherWind HumidityBarometerVisibility
6:00 PM
Oct 2
72 °FClear.12 mph38%30.15 "Hg10 mi
5:30 PM73 °FSunny.12 mph38%30.15 "Hg10 mi
5:00 PM75 °FSunny.16 mph34%30.15 "Hg10 mi
4:30 PM77 °FSunny.16 mph34%30.15 "Hg10 mi
3:30 PM79 °FSunny.9 mph30%30.12 "Hg10 mi
3:00 PM79 °FSunny.7 mph30%30.15 "Hg10 mi
2:30 PM81 °FSunny.12 mph28%30.15 "Hg10 mi
1:55 PM81 °FSunny.12 mph28%30.15 "Hg10 mi
1:30 PM79 °FSunny.9 mph30%30.15 "Hg10 mi
1:00 PM79 °FSunny.12 mph30%30.15 "Hg10 mi
12:30 PM77 °FSunny.14 mph32%30.18 "Hg10 mi
11:55 AM77 °FSunny.9 mph34%30.18 "Hg10 mi
11:30 AM77 °FSunny.7 mph34%30.18 "Hg10 mi
10:55 AM75 °FSunny.7 mph34%30.21 "Hg10 mi
10:30 AM73 °FSunny.9 mph38%30.21 "Hg10 mi
9:55 AM73 °FSunny.7 mph38%30.21 "Hg10 mi
9:30 AM70 °FSunny.9 mph50%30.24 "Hg10 mi
9:00 AM70 °FSunny.12 mph46%30.21 "Hg10 mi
8:30 AM68 °FSunny.9 mph53%30.21 "Hg10 mi
7:55 AM68 °FSunny.7 mph49%30.21 "Hg10 mi
7:30 AM66 °FSunny.7 mph52%30.21 "Hg10 mi
7:00 AM64 °FSunny.5 mph49%30.21 "Hg10 mi
6:30 AM61 °FSunny.5 mph52%30.18 "Hg10 mi
6:00 AM59 °FSunny.5 mph55%30.18 "Hg10 mi
5:30 AM59 °FClear.7 mph55%30.15 "Hg4 mi
5:00 AM59 °FClear.5 mph55%30.15 "Hg5 mi
4:30 AM59 °FClear.5 mph55%30.15 "Hg10 mi
4:00 AM59 °FClear.5 mph59%30.15 "Hg10 mi
3:30 AM59 °FClear.No wind59%30.12 "Hg10 mi
3:00 AM59 °FClear.No wind59%30.12 "Hg10 mi
2:30 AM61 °FClear.5 mph52%30.09 "Hg10 mi
2:00 AM61 °FClear.7 mph52%30.09 "Hg10 mi
1:30 AM63 °FClear.5 mph49%30.09 "Hg10 mi
1:00 AM63 °FClear.No wind52%30.09 "Hg10 mi
12:30 AM63 °FClear.5 mph49%30.09 "Hg10 mi
12:00 AM63 °FClear.5 mph49%30.09 "Hg10 mi
11:30 PM
Oct 1
64 °FClear.5 mph46%30.09 "Hg10 mi
11:00 PM66 °FClear.7 mph43%30.09 "Hg10 mi
10:30 PM66 °FClear.7 mph43%30.09 "Hg10 mi
10:00 PM68 °FClear.7 mph40%30.09 "Hg10 mi
9:30 PM68 °FClear.7 mph38%30.09 "Hg10 mi
9:00 PM68 °FClear.7 mph40%30.09 "Hg10 mi
8:30 PM70 °FClear.7 mph35%30.09 "Hg10 mi
8:00 PM70 °FClear.9 mph38%30.09 "Hg10 mi
7:30 PM70 °FClear.9 mph38%30.09 "Hg10 mi
7:00 PM70 °FClear.9 mph38%30.09 "Hg10 mi
Weather by CustomWeather, © 2014

See weather overviewHow to use our weather pages